| time (UTC) | temp F | wind direction | speed knots | gust knots | rain 1hr in | rain 24hr in | rain mn in | humidity % | barometer mb |
| 20260906230107 | 95 | 127 | 7.8 | 13.9 | 0.00 | 0.00 | 0.00 | 41 | 1012.7 |
| 20260906224601 | 95 | 144 | 6.1 | 8.7 | 0.00 | 0.00 | 0.00 | 41 | 1012.7 |
| 20260906223107 | 95 | 146 | 5.2 | 8.7 | 0.00 | 0.00 | 0.00 | 41 | 1012.8 |
| 20260906221611 | 94 | 186 | 4.3 | 7.8 | 0.00 | 0.00 | 0.00 | 41 | 1012.9 |
| 20260906220105 | 94 | 133 | 4.3 | 8.7 | 0.00 | 0.00 | 0.00 | 41 | 1013.1 |
| 20260906214606 | 94 | 141 | 5.2 | 10.4 | 0.00 | 0.00 | 0.00 | 41 | 1013.0 |
| 20260906213058 | 94 | 155 | 7.8 | 10.4 | 0.00 | 0.00 | 0.00 | 41 | 1013.2 |
| 20260906211606 | 95 | 167 | 7.0 | 14.8 | 0.00 | 0.00 | 0.00 | 41 | 1013.1 |
| 20260906210109 | 97 | 108 | 9.6 | 15.6 | 0.00 | 0.00 | 0.00 | 42 | 1013.4 |
| 20260906204620 | 96 | 146 | 5.2 | 13.9 | 0.00 | 0.00 | 0.00 | 42 | 1013.6 |
| 20260906203105 | 97 | 127 | 7.8 | 11.3 | 0.00 | 0.00 | 0.00 | 43 | 1013.7 |
| 20260906201603 | 96 | 110 | 6.1 | 11.3 | 0.00 | 0.00 | 0.00 | 44 | 1014.0 |
| 20260906200105 | 95 | 98 | 6.1 | 11.3 | 0.00 | 0.00 | 0.00 | 45 | 1014.1 |
| 20260906194608 | 96 | 80 | 2.6 | 11.3 | 0.00 | 0.00 | 0.00 | 46 | 1014.1 |
| 20260906193101 | 97 | 286 | 6.1 | 11.3 | 0.00 | 0.00 | 0.00 | 47 | 1014.4 |
| 20260906191613 | 97 | 135 | 0.0 | 10.4 | 0.00 | 0.00 | 0.00 | 48 | 1014.4 |
| 20260906190104 | 95 | 148 | 4.3 | 12.2 | 0.00 | 0.00 | 0.00 | 49 | 1014.6 |
| 20260906184620 | 94 | 185 | 6.1 | 14.8 | 0.00 | 0.00 | 0.00 | 50 | 1014.7 |
| 20260906183114 | 94 | 77 | 7.8 | 13.0 | 0.00 | 0.00 | 0.00 | 52 | 1015.1 |
| 20260906181613 | 94 | 75 | 5.2 | 11.3 | 0.00 | 0.00 | 0.00 | 53 | 1015.1 |
| 20260906180132 | 95 | 59 | 7.0 | 11.3 | 0.00 | 0.00 | 0.00 | 55 | 1015.2 |
| 20260906174628 | 95 | 162 | 1.7 | 8.7 | 0.00 | 0.00 | 0.00 | 56 | 1015.5 |
| 20260906173059 | 94 | 58 | 4.3 | 11.3 | 0.00 | 0.00 | 0.00 | 58 | 1015.8 |
| 20260906171618 | 93 | 63 | 5.2 | 9.6 | 0.00 | 0.00 | 0.00 | 60 | 1015.9 |
| 20260906170119 | 92 | 175 | 3.5 | 6.1 | 0.00 | 0.00 | 0.00 | 61 | 1016.2 |
| 20260906164602 | 94 | 115 | 1.7 | 6.1 | 0.00 | 0.00 | 0.00 | 63 | 1016.3 |
| 20260906163114 | 91 | 325 | 0.9 | 5.2 | 0.00 | 0.00 | 0.00 | 64 | 1016.4 |
| 20260906161624 | 92 | 197 | 1.7 | 4.3 | 0.00 | 0.00 | 0.00 | 65 | 1016.4 |
| 20260906160106 | 92 | 150 | 0.9 | 4.3 | 0.00 | 0.00 | 0.00 | 67 | 1016.2 |
| 20260906154605 | 91 | 155 | 0.9 | 3.5 | 0.00 | 0.00 | 0.00 | 68 | 1016.5 |
| 20260906153129 | 87 | 86 | 1.7 | 2.6 | 0.00 | 0.00 | 0.00 | 68 | 1016.4 |
| 20260906151604 | 86 | 182 | 1.7 | 3.5 | 0.00 | 0.00 | 0.00 | 69 | 1016.1 |
| 20260906150110 | 84 | 195 | 1.7 | 2.6 | 0.00 | 0.00 | 0.00 | 69 | 1016.1 |
| 20260906144608 | 84 | 202 | 0.9 | 2.6 | 0.00 | 0.00 | 0.00 | 70 | 1016.1 |
| 20260906143106 | 85 | 186 | 0.0 | 2.6 | 0.00 | 0.00 | 0.00 | 70 | 1016.0 |
| 20260906141622 | 83 | 0 | 0.9 | 2.6 | 0.00 | 0.00 | 0.00 | 69 | 1015.8 |
| 20260906134606 | 77 | 105 | 0.9 | 1.7 | 0.00 | 0.00 | 0.00 | 68 | 1015.9 |
| 20260906133111 | 74 | 0 | 0.0 | 0.0 | 0.00 | 0.00 | 0.00 | 68 | 1015.8 |
| 20260906131610 | 73 | 0 | 0.0 | 0.0 | 0.00 | 0.00 | 0.00 | 67 | 1015.7 |
| 20260906130109 | 74 | 0 | 0.0 | 0.0 | 0.00 | 0.00 | 0.00 | 67 | 1015.5 |
| 20260906124609 | 73 | 0 | 0.0 | 0.0 | 0.00 | 0.00 | 0.00 | 66 | 1015.4 |
| 20260906123109 | 71 | 0 | 0.0 | 0.0 | 0.00 | 0.00 | 0.00 | 65 | 1015.2 |
| 20260906121614 | 71 | 0 | 0.0 | 0.0 | 0.00 | 0.00 | 0.00 | 65 | 1015.0 |
| 20260906120108 | 72 | 0 | 0.0 | 0.0 | 0.00 | 0.00 | 0.00 | 64 | 1015.0 |
| 20260906114604 | 72 | 0 | 0.0 | 0.0 | 0.00 | 0.00 | 0.00 | 64 | 1014.7 |
| 20260906113105 | 73 | 0 | 0.0 | 0.0 | 0.00 | 0.00 | 0.00 | 63 | 1014.7 |
| 20260906111601 | 72 | 0 | 0.0 | 0.0 | 0.00 | 0.00 | 0.00 | 62 | 1014.6 |
| 20260906110058 | 71 | 0 | 0.0 | 0.0 | 0.00 | 0.00 | 0.00 | 62 | 1014.5 |
| 20260906104608 | 72 | 0 | 0.0 | 0.0 | 0.00 | 0.00 | 0.00 | 61 | 1014.4 |
| 20260906103104 | 73 | 0 | 0.0 | 0.0 | 0.00 | 0.00 | 0.00 | 61 | 1014.4 |
| 20260906101609 | 73 | 0 | 0.0 | 0.0 | 0.00 | 0.00 | 0.00 | 60 | 1014.4 |
| 20260906100059 | 73 | 0 | 0.0 | 0.0 | 0.00 | 0.00 | 0.00 | 59 | 1014.4 |
| 20260906094606 | 72 | 0 | 0.0 | 0.0 | 0.00 | 0.00 | 0.00 | 59 | 1014.2 |
| 20260906093103 | 73 | 0 | 0.0 | 0.0 | 0.00 | 0.00 | 0.00 | 58 | 1014.1 |
| 20260906091604 | 74 | 0 | 0.0 | 0.0 | 0.00 | 0.00 | 0.00 | 57 | 1014.1 |
| 20260906090104 | 75 | 0 | 0.0 | 0.0 | 0.00 | 0.00 | 0.00 | 57 | 1014.0 |
| 20260906084605 | 75 | 0 | 0.0 | 0.0 | 0.00 | 0.00 | 0.00 | 56 | 1014.1 |
| 20260906083104 | 75 | 0 | 0.0 | 0.0 | 0.00 | 0.00 | 0.00 | 55 | 1014.2 |
| 20260906081606 | 75 | 0 | 0.0 | 0.0 | 0.00 | 0.00 | 0.00 | 55 | 1014.2 |
| 20260906080106 | 76 | 0 | 0.0 | 0.0 | 0.00 | 0.00 | 0.00 | 54 | 1014.2 |
| 20260906074604 | 76 | 0 | 0.0 | 0.0 | 0.00 | 0.00 | 0.00 | 53 | 1014.2 |
| 20260906073102 | 76 | 0 | 0.0 | 0.9 | 0.00 | 0.00 | 0.00 | 53 | 1014.3 |
| 20260906071600 | 78 | 0 | 0.0 | 0.9 | 0.00 | 0.00 | 0.00 | 52 | 1014.5 |
| 20260906070108 | 79 | 139 | 0.0 | 0.9 | 0.00 | 0.00 | 0.00 | 51 | 1014.4 |
| 20260906064604 | 79 | 131 | 1.7 | 3.5 | 0.00 | 0.00 | 0.00 | 50 | 1014.6 |
| 20260906063106 | 79 | 132 | 1.7 | 2.6 | 0.00 | 0.00 | 0.00 | 50 | 1014.7 |
| 20260906061606 | 79 | 134 | 0.9 | 1.7 | 0.00 | 0.00 | 0.00 | 49 | 1014.9 |
| 20260906060136 | 79 | 149 | 0.0 | 0.9 | 0.00 | 0.00 | 0.00 | 49 | 1014.7 |
| 20260906054616 | 80 | 0 | 0.0 | 0.9 | 0.00 | 0.00 | 0.00 | 48 | 1014.8 |
| 20260906053105 | 80 | 186 | 0.0 | 1.7 | 0.00 | 0.00 | 0.00 | 47 | 1014.8 |
| 20260906051607 | 80 | 0 | 0.0 | 0.0 | 0.00 | 0.00 | 0.00 | 47 | 1014.9 |
| 20260906050107 | 82 | 104 | 1.7 | 2.6 | 0.00 | 0.00 | 0.00 | 46 | 1015.0 |
| 20260906044601 | 82 | 196 | 0.9 | 0.9 | 0.00 | 0.00 | 0.00 | 45 | 1014.7 |
| 20260906043104 | 83 | 143 | 0.9 | 1.7 | 0.00 | 0.00 | 0.00 | 45 | 1014.5 |
| 20260906041607 | 83 | 146 | 1.7 | 2.6 | 0.00 | 0.00 | 0.00 | 44 | 1014.5 |
| 20260906040109 | 84 | 151 | 2.6 | 4.3 | 0.00 | 0.00 | 0.00 | 44 | 1014.4 |
| 20260906034607 | 84 | 153 | 2.6 | 4.3 | 0.00 | 0.00 | 0.00 | 43 | 1014.6 |
| 20260906033106 | 84 | 135 | 2.6 | 4.3 | 0.00 | 0.00 | 0.00 | 42 | 1014.5 |
| 20260906031602 | 84 | 150 | 2.6 | 5.2 | 0.00 | 0.00 | 0.00 | 41 | 1014.2 |
| 20260906030106 | 84 | 148 | 1.7 | 3.5 | 0.00 | 0.00 | 0.00 | 41 | 1014.0 |
| 20260906024618 | 85 | 136 | 1.7 | 2.6 | 0.00 | 0.00 | 0.00 | 40 | 1013.7 |
| 20260906023107 | 86 | 118 | 0.9 | 3.5 | 0.00 | 0.00 | 0.00 | 40 | 1013.4 |
| 20260906021606 | 86 | 137 | 0.9 | 4.3 | 0.00 | 0.00 | 0.00 | 39 | 1013.2 |
| 20260906020114 | 87 | 91 | 1.7 | 3.5 | 0.00 | 0.00 | 0.00 | 39 | 1013.0 |
| 20260906014612 | 88 | 113 | 1.7 | 4.3 | 0.00 | 0.00 | 0.00 | 38 | 1012.8 |
| 20260906013108 | 89 | 103 | 2.6 | 4.3 | 0.00 | 0.00 | 0.00 | 38 | 1012.7 |
| 20260906011607 | 90 | 127 | 2.6 | 6.1 | 0.00 | 0.00 | 0.00 | 38 | 1012.7 |
| 20260906010146 | 91 | 118 | 4.3 | 7.8 | 0.00 | 0.00 | 0.00 | 37 | 1012.5 |
| 20260906004617 | 92 | 89 | 6.1 | 12.2 | 0.00 | 0.00 | 0.00 | 37 | 1012.4 |
| 20260906003105 | 93 | 120 | 6.1 | 11.3 | 0.00 | 0.00 | 0.00 | 37 | 1012.2 |
| 20260906001608 | 94 | 87 | 7.8 | 11.3 | 0.00 | 0.00 | 0.00 | 36 | 1012.1 |
| 20260906000105 | 95 | 99 | 7.0 | 13.0 | 0.00 | 0.00 | 0.00 | 36 | 1012.0 |
| 20260905234604 | 96 | 109 | 8.7 | 12.2 | 0.00 | 0.00 | 0.00 | 36 | 1012.0 |
| 20260905233103 | 96 | 88 | 8.7 | 12.2 | 0.00 | 0.00 | 0.00 | 37 | 1011.9 |
| 20260905231612 | 97 | 96 | 5.2 | 9.6 | 0.00 | 0.00 | 0.00 | 37 | 1011.8 |